GFSSE_850_thetae_021.txt.gz
Theta_e
334 326 327 326 323 321 318 317 316 315 314 313 313 313 312 312 312 311 311 310 310 309 309 308 308 308 308 308 308 308 308 309 311 314 321 340 343 342 341 340 340 340 334
326 325 327 325 323 319 319 318 317 316 315 315 314 314 313 313 312 312 311 309 308 308 308 311 313 313 312 311 310 309 309 309 308 309 311 321 339 342 341 340 340 342 343
326 325 325 324 322 319 319 319 317 316 316 316 316 315 315 314 314 313 313 312 309 309 311 312 311 312 314 316 317 316 313 310 309 308 308 310 324 339 340 341 341 341 345
329 325 325 324 322 319 320 319 318 317 317 317 317 317 316 315 315 315 315 315 313 313 313 315 314 312 313 317 320 321 320 317 312 309 307 308 312 335 329 337 340 341 341
331 328 325 325 323 319 319 319 318 317 317 317 317 317 316 316 315 315 316 318 320 322 321 324 322 323 320 326 327 327 325 323 319 314 308 307 309 323 326 333 338 339 341
333 330 327 326 323 319 319 319 318 317 317 317 318 318 318 317 316 316 317 322 324 326 325 323 324 328 327 322 329 330 329 330 324 320 312 314 323 325 335 336 337 337 341
334 333 328 326 325 320 319 320 319 318 318 318 319 320 320 319 318 317 317 322 327 329 328 330 332 332 330 330 328 325 321 324 331 325 317 321 326 327 326 330 331 334 337
336 336 335 327 326 321 320 320 319 318 318 319 319 320 321 321 321 319 317 319 325 328 331 327 323 323 325 329 332 329 327 319 323 330 325 329 331 331 330 329 327 328 333
336 336 336 335 328 324 320 320 320 319 319 319 319 320 321 321 321 321 320 324 328 328 325 327 325 323 322 322 323 323 328 326 322 319 327 331 332 331 331 330 327 322 323
332 336 336 336 334 327 322 321 320 320 319 319 319 320 320 321 321 321 321 323 328 330 329 329 328 324 319 316 317 321 323 325 321 322 323 333 332 331 331 331 329 327 316
331 333 334 336 336 334 327 322 321 321 320 320 320 320 321 321 321 321 322 322 328 330 330 329 329 318 317 316 316 316 317 317 319 323 319 326 332 331 331 332 331 330 314
330 330 334 336 336 336 335 330 322 320 320 320 321 321 322 322 321 322 323 322 329 331 331 330 329 328 327 324 317 318 324 328 326 318 316 324 330 332 332 331 332 331 319
330 329 332 335 336 337 337 336 332 325 321 321 321 322 322 323 323 325 324 326 332 334 332 331 329 329 328 328 329 329 329 328 328 327 320 329 329 330 330 331 330 330 318
330 328 328 333 336 337 337 336 336 335 328 321 321 322 323 323 325 326 325 327 333 333 332 331 330 329 329 329 328 329 328 328 329 329 326 329 330 331 331 331 330 328 318
330 328 329 329 333 337 337 337 336 336 335 331 332 333 326 324 328 331 327 332 334 334 332 331 331 329 329 329 330 328 327 328 331 331 329 328 329 329 329 330 329 328 321
329 328 327 329 333 336 337 337 336 336 337 336 338 337 333 336 336 332 331 334 335 334 332 330 331 330 329 329 328 328 327 326 329 329 329 329 329 329 327 329 328 325 320
329 328 328 329 332 336 337 336 337 338 338 338 341 340 338 338 336 332 331 334 333 333 331 331 330 330 330 329 328 327 327 325 327 327 329 329 329 326 328 327 324 323 317
328 327 327 329 330 335 337 337 340 339 339 341 341 340 338 336 333 331 331 331 332 332 331 333 331 330 329 328 327 327 326 324 325 327 328 328 329 327 326 327 323 314 313
328 327 327 329 328 333 336 338 340 340 340 341 341 339 337 335 333 333 332 331 331 331 331 332 330 329 328 327 327 327 326 325 326 326 326 327 327 325 327 328 328 325 311
328 327 329 329 329 333 336 339 340 340 342 341 339 336 334 333 334 334 333 334 332 331 331 331 329 328 327 327 327 327 327 326 325 326 326 326 326 327 327 327 328 328 318
327 328 328 330 330 333 337 341 343 340 343 342 337 333 332 333 334 335 333 332 331 331 331 329 328 328 327 327 326 327 328 327 325 325 328 326 326 326 326 327 328 331 326
328 329 331 332 335 336 339 343 343 342 342 340 337 333 332 333 333 333 330 331 331 328 328 326 326 327 327 325 326 325 326 326 325 325 327 327 327 323 325 326 327 329 329
330 330 332 334 336 339 345 345 344 343 342 339 336 332 332 333 333 331 331 331 330 327 326 326 325 325 324 324 323 324 324 323 323 323 325 325 327 325 325 328 327 328 329
330 332 333 335 342 346 346 344 342 342 338 333 333 333 334 333 334 332 331 326 327 326 326 325 325 325 325 323 323 323 323 325 326 325 325 326 327 326 326 327 328 328 328
333 334 334 338 343 345 344 342 340 338 335 334 334 333 333 333 331 331 328 326 326 325 324 324 324 323 323 323 323 323 323 323 326 327 326 325 326 326 326 327 328 327 329
335 335 337 339 343 344 343 339 336 333 332 333 333 331 331 331 331 330 327 327 326 326 324 324 324 324 324 324 324 324 325 323 324 326 325 324 324 326 325 324 326 328 329

GFSSE_850_thetae_024.txt.gz
Theta_e
331 328 326 324 322 321 319 319 319 318 317 317 316 315 314 313 312 311 311 310 310 309 309 309 308 308 308 308 308 308 309 311 314 317 321 339 343 343 341 341 341 337 331
326 326 326 324 322 320 319 320 319 318 318 318 318 317 316 315 314 313 312 311 309 308 308 308 309 310 311 310 309 309 308 308 308 309 312 318 338 342 341 340 340 342 334
327 325 326 325 323 320 319 320 320 319 318 318 318 317 317 316 315 314 314 315 313 310 310 312 311 311 311 313 315 315 313 310 309 308 308 310 324 341 341 340 341 340 343
326 325 325 324 322 320 320 320 320 319 318 318 318 318 318 317 316 315 315 317 318 318 316 314 315 312 312 312 314 317 318 317 314 309 308 308 311 336 338 339 340 341 342
328 326 325 324 323 320 320 321 320 319 319 319 319 319 319 319 318 317 316 318 320 321 321 322 324 322 323 321 325 324 321 322 320 316 309 307 308 332 328 330 335 339 341
331 328 326 325 323 320 320 321 320 320 319 319 320 320 320 320 320 319 317 317 320 323 324 324 323 324 327 326 324 331 329 327 328 322 314 308 310 322 329 329 333 336 339
332 332 329 326 324 322 320 321 320 320 319 320 320 320 320 321 321 320 318 317 318 323 328 328 330 333 332 331 330 327 325 323 323 328 318 317 322 324 329 334 334 334 336
332 334 333 329 326 325 320 320 320 319 319 320 320 320 321 321 321 321 320 318 320 322 324 327 326 323 322 323 328 331 331 328 320 327 325 322 325 325 328 328 329 329 331
332 335 336 335 329 326 322 320 320 320 320 320 320 320 321 321 321 321 321 320 321 325 326 327 327 326 324 321 321 322 328 323 327 319 327 325 327 327 331 330 327 324 324
333 335 336 336 335 327 325 320 320 320 320 320 320 320 320 320 320 320 321 321 323 326 327 328 328 328 325 322 318 316 319 321 327 324 320 329 330 329 329 330 330 329 324
332 333 334 335 336 334 327 324 320 320 320 319 319 319 319 320 320 320 321 322 323 327 329 329 329 326 320 317 316 316 316 319 318 319 323 323 332 331 330 330 329 330 328
330 331 332 333 335 336 330 327 322 320 320 320 319 319 319 320 320 321 321 324 325 329 331 330 329 328 327 327 326 316 316 318 322 321 318 320 322 331 330 330 331 331 330
330 330 330 330 333 335 335 331 326 322 321 321 320 320 320 320 321 322 322 325 326 330 332 331 330 329 328 328 326 323 328 329 328 328 327 317 324 330 330 330 331 330 330
330 330 330 329 332 334 335 335 334 327 323 322 321 321 320 320 321 322 323 326 326 330 333 331 330 330 329 328 327 327 327 328 327 329 327 321 329 329 329 330 331 330 328
330 330 330 329 329 331 334 336 336 336 330 327 325 321 321 321 322 322 324 327 327 332 332 333 331 330 329 328 328 328 327 327 327 329 330 326 328 328 329 330 331 329 328
330 330 329 329 328 330 332 335 336 336 336 334 330 322 321 325 324 323 329 329 330 333 335 334 331 330 330 329 329 328 330 328 327 326 329 329 328 328 328 328 329 329 328
329 329 329 328 327 328 330 332 335 337 337 337 336 334 335 337 331 335 333 331 331 335 334 333 332 330 330 330 330 329 328 327 327 326 328 328 328 328 328 327 327 327 325
329 329 329 328 327 329 329 331 333 337 337 338 338 337 340 339 337 336 334 332 332 333 333 332 331 332 331 330 330 329 328 327 327 326 327 328 329 329 329 326 327 325 323
329 329 328 327 327 328 328 331 333 337 338 340 339 340 341 339 338 335 333 333 332 330 331 330 331 331 331 329 328 327 327 327 325 325 326 327 328 328 328 326 327 326 314
328 328 328 327 328 330 329 330 336 340 342 340 341 343 340 338 335 333 333 333 330 333 332 330 329 329 328 327 327 327 326 326 325 325 326 326 327 327 327 325 327 327 327
328 329 328 327 328 329 329 332 339 342 342 342 342 341 337 335 333 333 334 333 332 332 330 329 328 327 327 327 327 327 326 326 327 325 326 326 327 327 327 326 327 327 329
328 327 327 328 327 328 330 335 341 343 343 341 340 337 335 332 334 333 333 334 330 331 330 327 326 326 326 327 327 326 326 326 327 325 325 325 327 325 325 325 326 326 329
328 327 327 328 328 331 332 337 342 343 343 342 340 338 335 333 333 333 333 331 330 330 328 326 325 325 325 326 325 326 325 324 323 324 325 325 326 325 327 325 325 326 327
327 329 329 330 333 337 338 341 344 343 342 342 341 338 333 333 333 333 333 332 328 326 325 325 324 325 325 324 324 323 323 324 326 324 323 324 326 327 324 325 327 326 328
328 329 332 335 337 342 344 345 345 343 342 341 333 334 332 332 333 333 331 330 326 325 324 323 324 324 323 323 323 323 323 323 324 326 325 325 326 326 326 325 328 326 327
332 333 335 336 344 346 346 344 342 342 338 334 333 334 333 333 332 331 331 329 326 325 323 323 323 323 324 323 324 323 324 323 323 324 325 325 326 326 326 326 326 327 326

GFSSE_850_thetae_030.txt.gz
Theta_e
328 325 322 320 320 319 318 317 317 318 318 318 317 317 316 315 314 313 312 312 311 310 310 310 310 310 309 309 310 311 314 321 325 326 325 326 338 343 344 342 340 339 337
327 326 323 321 320 320 319 319 318 318 318 319 319 318 318 317 316 316 315 314 313 311 309 308 308 308 308 308 308 308 308 308 310 314 317 318 323 340 341 341 341 338 338
327 327 324 322 322 321 320 319 319 319 319 319 319 319 318 318 317 317 316 316 315 314 312 311 310 310 310 310 310 311 310 308 308 308 308 311 314 333 341 341 340 341 338
327 326 325 324 323 321 320 320 320 319 319 319 319 319 319 318 318 317 317 317 317 317 317 316 316 315 314 312 311 311 312 313 313 310 308 308 308 322 339 340 340 340 341
326 326 326 325 324 322 320 320 320 320 320 319 319 319 319 319 319 318 318 318 317 318 319 319 320 320 321 322 322 321 322 317 317 317 313 308 307 313 337 340 340 340 340
327 326 325 325 325 323 321 320 321 320 320 320 320 319 320 320 320 319 319 319 318 318 320 321 322 323 323 326 326 327 330 328 324 323 319 314 308 308 329 335 338 338 340
329 327 326 326 325 324 323 320 321 321 320 320 320 319 320 320 320 320 320 320 319 319 320 321 323 324 325 328 332 331 329 327 323 321 325 319 310 308 318 330 330 332 336
331 330 328 328 326 324 323 321 320 321 320 320 319 319 320 320 320 320 321 320 320 320 320 320 321 323 323 323 323 326 325 330 330 327 322 325 314 311 315 324 326 329 332
332 332 330 328 327 325 324 322 320 319 320 319 319 319 319 320 320 320 321 321 321 321 321 321 322 323 325 326 325 323 322 322 326 330 325 326 320 318 319 325 330 330 330
332 332 332 332 331 328 326 323 321 319 319 319 319 319 319 319 320 320 321 321 321 321 322 322 322 324 324 324 320 322 321 319 320 325 326 322 325 322 324 324 326 328 326
332 332 332 333 332 331 328 325 321 319 319 319 319 319 318 319 319 320 320 320 321 322 322 323 324 325 325 326 326 326 322 316 315 316 318 325 322 325 325 324 326 328 326
332 331 332 333 333 333 331 329 325 322 320 319 319 318 318 318 318 319 320 320 320 321 323 324 326 327 326 327 327 326 323 320 315 316 317 323 324 323 328 327 325 328 328
331 332 331 331 330 332 333 333 331 325 323 321 319 319 319 318 318 318 319 319 320 321 323 325 327 327 327 327 327 327 320 320 325 327 326 322 317 321 327 330 327 328 329
327 328 329 329 329 330 331 333 333 332 328 326 323 319 319 318 317 318 318 319 320 321 324 325 328 328 328 328 328 327 327 326 325 327 327 327 328 322 322 328 328 329 330
326 327 327 328 328 329 330 331 332 332 333 331 327 322 319 319 318 319 318 319 320 321 324 326 328 329 330 329 329 328 327 327 327 327 327 328 328 322 318 319 326 329 329
326 326 327 327 327 327 328 329 330 331 333 333 331 327 321 320 319 319 319 319 320 321 326 329 330 330 331 331 329 329 328 328 327 326 326 326 326 326 323 323 326 327 329
327 327 327 326 326 327 328 328 329 330 331 331 332 330 324 321 319 320 320 320 320 321 329 331 331 332 331 331 329 329 329 329 328 327 327 326 325 328 325 326 326 327 330
326 326 326 326 327 327 327 328 328 329 329 330 332 333 332 326 321 321 320 321 321 323 333 331 332 333 332 330 328 328 330 329 329 328 328 327 325 328 328 325 326 326 327
325 325 326 326 327 327 327 328 328 329 328 329 331 333 335 334 329 324 322 322 323 329 333 332 332 333 331 329 330 329 328 328 329 328 328 327 326 325 327 327 327 326 325
325 325 326 326 326 327 328 328 328 329 329 329 332 334 337 337 334 330 331 330 332 335 332 332 329 330 330 330 328 326 326 326 327 327 327 326 326 325 326 328 328 326 325
324 326 327 328 328 328 328 328 328 328 329 331 333 336 337 338 336 336 331 333 335 334 333 331 331 332 330 328 326 324 325 326 327 327 326 326 325 324 326 328 327 326 327
323 324 324 326 328 328 328 328 327 327 329 332 336 338 339 339 338 338 336 335 334 333 333 331 331 330 330 327 326 326 326 326 327 327 326 326 325 325 325 325 327 326 327
322 323 324 325 327 327 327 327 328 330 333 335 337 340 340 339 339 338 334 333 333 333 333 331 329 327 327 325 325 326 325 325 325 326 326 325 325 325 325 326 327 326 326
322 322 324 325 327 328 328 328 328 330 333 333 337 341 341 342 338 335 334 332 333 331 331 330 326 325 325 324 325 326 325 324 323 324 324 325 325 325 324 326 325 325 325
321 322 324 325 327 327 327 329 332 334 336 338 341 342 342 337 334 332 332 333 330 330 331 327 324 323 323 324 324 324 325 325 323 324 324 323 323 325 325 325 326 325 325
322 323 324 324 326 328 331 333 336 338 340 341 341 341 337 333 332 332 332 330 331 331 329 324 323 322 322 323 323 324 323 323 323 323 323 325 322 324 326 326 325 325 326

GFSSE_850_thetae_033.txt.gz
Theta_e
327 327 322 320 320 319 318 316 316 316 316 316 316 315 314 314 314 314 314 313 312 311 310 310 310 310 310 310 310 311 313 318 325 327 326 330 338 341 344 343 341 340 338
327 328 323 320 320 320 318 318 317 317 318 317 317 317 316 316 315 315 315 315 314 314 312 310 309 308 308 308 308 308 308 308 311 317 321 319 323 338 341 342 341 339 338
327 327 324 322 321 320 319 319 319 319 318 318 318 318 317 316 316 315 315 316 316 316 315 314 312 311 310 310 309 310 309 308 308 308 310 312 314 323 339 340 341 338 338
327 327 326 323 321 321 320 320 319 319 319 319 318 318 318 317 317 317 316 316 317 317 317 317 317 316 316 314 312 311 311 312 312 309 308 308 308 315 332 340 339 340 339
327 326 326 324 323 322 321 321 320 320 319 319 319 319 318 318 318 318 318 317 317 318 318 319 319 320 320 321 321 321 321 319 313 314 313 309 308 308 327 337 340 340 340
327 326 326 325 324 323 322 321 320 320 319 319 319 318 318 319 319 319 319 319 318 318 319 320 321 322 322 325 327 327 328 329 323 320 318 316 310 307 312 331 339 340 340
327 326 326 326 324 323 323 321 320 320 319 319 319 319 319 320 320 320 320 319 319 319 319 320 321 322 323 325 327 330 329 329 328 323 320 321 317 308 307 316 332 337 338
329 328 327 326 324 324 323 322 320 319 319 319 319 319 319 320 320 320 320 320 320 320 320 320 320 321 322 323 323 326 329 325 332 331 323 323 321 312 308 318 322 329 333
331 330 329 326 326 325 323 322 321 319 319 319 318 319 319 319 320 320 320 321 321 321 321 320 320 321 322 324 324 325 323 322 329 333 331 323 326 317 314 315 320 326 329
332 332 331 329 327 326 324 323 321 320 319 319 318 318 318 319 319 320 320 321 321 321 321 321 320 321 322 323 324 321 320 321 323 332 331 331 323 323 319 320 325 329 330
333 333 332 332 331 329 326 325 323 321 320 318 318 317 317 318 318 319 320 321 321 321 321 321 321 323 323 324 326 326 325 327 320 326 328 324 323 324 323 324 323 327 327
333 332 332 332 332 332 330 329 327 324 321 320 318 317 317 317 317 318 319 320 320 320 321 322 323 325 326 326 326 326 326 323 321 320 324 316 322 322 325 325 325 324 327
328 331 331 332 332 332 333 332 331 327 324 321 319 318 317 317 317 317 318 319 320 320 321 322 324 326 327 326 327 327 326 319 320 323 324 319 317 324 322 326 327 324 324
328 326 327 327 329 331 333 332 331 332 330 326 322 319 317 317 317 317 317 318 319 320 320 322 326 328 328 328 327 328 327 326 325 325 326 327 327 325 318 321 327 326 327
328 327 326 326 327 327 328 329 329 329 332 332 328 325 321 318 317 317 317 318 318 319 320 322 326 328 330 330 329 328 328 327 327 326 327 327 328 327 325 321 323 327 329
327 326 326 326 326 326 326 326 327 327 329 332 332 332 329 321 318 317 317 318 318 318 319 321 327 328 331 331 332 329 328 328 327 327 327 327 326 326 326 317 319 322 327
326 325 326 326 325 325 326 326 326 327 327 329 331 332 333 328 320 318 318 318 319 319 319 320 324 329 331 332 332 331 328 329 329 328 327 327 326 326 326 322 322 322 325
326 326 325 324 325 325 325 326 326 327 327 328 330 332 333 333 329 321 319 318 319 319 320 321 330 330 331 333 332 330 329 328 329 329 328 328 327 327 328 326 325 325 325
325 324 324 324 325 326 325 326 326 327 327 328 329 330 332 333 333 329 323 320 319 320 320 322 332 331 331 332 331 329 329 328 328 328 329 328 327 327 326 328 325 326 326
323 324 324 324 324 326 326 326 326 326 327 328 329 330 332 334 335 335 331 324 321 321 322 329 332 329 328 329 328 328 328 326 326 327 327 328 327 327 325 326 327 328 326
321 323 324 323 325 325 327 327 327 327 328 328 329 330 334 335 337 337 334 327 323 322 325 333 331 329 329 330 330 328 326 325 325 326 327 327 327 326 325 325 328 328 328
320 322 324 323 323 324 324 327 327 328 328 329 330 332 336 337 338 336 332 329 327 327 333 332 332 330 331 331 329 327 328 329 326 326 327 326 326 326 324 325 327 328 326
322 322 323 322 322 324 325 325 327 328 328 330 331 334 337 339 338 336 335 335 334 334 333 332 332 331 330 328 327 327 328 328 328 327 327 326 326 325 325 325 325 327 327
321 321 321 321 321 322 325 326 327 327 328 329 332 335 339 340 338 338 336 334 334 333 333 330 331 329 327 327 325 325 325 325 326 328 326 326 325 325 325 325 326 327 326
317 317 318 320 321 323 326 327 327 328 329 333 335 338 340 339 340 337 335 334 333 331 329 330 330 326 324 325 324 324 325 325 323 324 326 323 325 325 325 325 325 326 325
320 321 321 322 323 323 326 327 328 330 333 336 338 341 341 339 336 334 333 333 332 329 330 330 326 323 323 323 324 324 326 326 326 323 323 323 323 324 325 326 326 325 325